This is the latest recevied weather packets stored in our database for station/object KY0TEQ-13. If no packets are shown the sender has not sent any weather packets the latest 10 day(s).
| Time | Temp. | Humidity | Pressure | Rain* | Wind** | Luminosity | Snow |
|---|---|---|---|---|---|---|---|
| 1778024322 | 13.89° C | 26% | 1292.9 hPa | 0 mm | - | 131 W/m² | - |
| 1778024020 | 13.89° C | 26% | 1293.2 hPa | 0 mm | - | 161 W/m² | - |
| 1778023717 | 14.44° C | 26% | 1292.9 hPa | 0 mm | - | 193 W/m² | - |
| 1778023415 | 14.44° C | 27% | 1292.8 hPa | 0 mm | - | 200 W/m² | - |
| 1778023111 | 14.44° C | 25% | 1293.1 hPa | 0 mm | - | 219 W/m² | - |
| 1778022810 | 14.44° C | 26% | 1292.9 hPa | 0 mm | - | 224 W/m² | - |
| 1778022507 | 14.44° C | 26% | 1292.7 hPa | 0 mm | - | 223 W/m² | - |
| 1778022204 | 15° C | 25% | 1292.9 hPa | 0 mm | - | 212 W/m² | - |
| 1778021901 | 15° C | 24% | 1293.1 hPa | 0 mm | - | 287 W/m² | - |
| 1778021598 | 15° C | 24% | 1292.9 hPa | 0 mm | - | 269 W/m² | - |
| 1778021293 | 15° C | 23% | 1293.2 hPa | 0 mm | - | 306 W/m² | - |
| 1778020991 | 15.56° C | 23% | 1293.3 hPa | 0 mm | - | 366 W/m² | - |
| 1778020688 | 15.56° C | 24% | 1293.3 hPa | 0 mm | - | 420 W/m² | - |
| 1778020385 | 15° C | 24% | 1293.2 hPa | 0 mm | - | 528 W/m² | - |
| 1778020081 | 15° C | 24% | 1293.3 hPa | 0 mm | - | 187 W/m² | - |
| 1778019777 | 14.44° C | 25% | 1293.2 hPa | 0 mm | - | 180 W/m² | - |
| 1778019475 | 14.44° C | 24% | 1293.6 hPa | 0 mm | - | 234 W/m² | - |
| 1778019171 | 15° C | 23% | 1293.4 hPa | 0 mm | - | 214 W/m² | - |
| 1778018868 | 15.56° C | 24% | 1293.7 hPa | 0 mm | - | 179 W/m² | - |
| 1778018565 | 15.56° C | 23% | 1293.6 hPa | 0 mm | - | 620 W/m² | - |
| 1778018263 | 15.56° C | 24% | 1293.8 hPa | 0 mm | - | 185 W/m² | - |
| 1778017961 | 16.11° C | 24% | 1293.8 hPa | 0 mm | - | 610 W/m² | - |
| 1778017659 | 15.56° C | 23% | 1293.7 hPa | 0 mm | - | 571 W/m² | - |
| 1778017356 | 15.56° C | 23% | 1294 hPa | 0 mm | - | 417 W/m² | - |
| 1778017053 | 15.56° C | 24% | 1293.9 hPa | 0 mm | - | 673 W/m² | - |
* Rain latest hour (hover to see other rain measurements)
** Current wind speed in m/s (hover to see current wind gust speed)